Location: Melizzano
(41.1500°N, 14.5000°E)
Time: 22:59:47
(UTC+00:00)

ERS-1 Rocket - Pass Details

Date: 11 May 2021
Orbit: 753 x 757 km, 98.4° (Epoch: 24 June)

Event Time Altitude Azimuth Distance (km) Brightness Sun altitude
Exits shadow 20:30:19 50° 132° (SE) 959 3.0 -21.5°
Maximum altitude 20:31:28 67° 74° (ENE) 821 3.0 -21.7°
Drops below altitude 10° 20:36:28 10° 352° (N) 2,290 6.3 -22.2°
Sets 20:38:47 0° 350° (N) 3,220 7.3 -22.5°
